[[{"header":{"parameterUnit":"m.s-1","parameterCategory":1,"la1":30.2991,"la2":30.254,"lo1":-89.0895,"lo2":-89.0444,"dy":0.0017,"dx":0.0017,"nx":28,"ny":28,"refTime":"2023-10-08T09:00:00:Z","depth":0,"parameterNumber":2,"parameterNumberName":"U-component_of_WINDS"},"data":[0,0,0,0,0,0,0,0,0,0,0,0,0,0,0,0,0,0,0,0,0,0,0,0,0,0,0,0,0,0,0,0,0,0,0,0,0,0,0,0,0,0,0,0,0,0,0,0,0,0,0,0,0,0,0,0,0,0,0.6233,0.6233,0,0.6196,0.6196,0.6195,0.6153,0.6153,0.6152,0.6151,0.6114,0.6114,0.6113,0,0,0,0,0,0,0,0,0,0,0,0,0,0.6269,0.6268,0.6233,0.6233,0.6232,0.6196,0.6196,0.6195,0.6153,0.6153,0.6152,0.6151,0.6114,0.6114,0.6113,0,0,0,0,0,0,0,0,0,0,0,0,0,0.6245,0.6268,0.6233,0.6207,0.6204,0.6196,0.6196,0.6195,0.6154,0.6153,0.6152,0.6151,0.6115,0.6114,0.6113,0.6128,0,0,0.6111,0.6111,0,0,0,0,0,0,0,0,0.6246,0.6244,0.6211,0.6209,0.6206,0.6178,0.6195,0.6173,0.6154,0.6173,0.6151,0.615,0.6136,0.6134,0.6129,0.6127,0.6125,0.6111,0.6111,0.6111,0.6111,0,0,0,0,0,0,0,0.6248,0.6245,0.6218,0.6211,0.6207,0.6198,0.6193,0.619,0.616,0.6171,0.6168,0.6164,0.6135,0.613,0.6128,0.6125,0.6111,0.6111,0.6111,0.611,0.6134,0.6135,0,0,0,0,0,0,0.6253,0.6247,0.622,0.6217,0.6224,0.6198,0.6193,0.6188,0.616,0.6155,0.6165,0.6162,0.6131,0.6129,0.6126,0.6143,0.6111,0.611,0.611,0.6133,0.6134,0.6135,0,0,0,0,0,0,0.6254,0.6251,0.6221,0.6231,0.6226,0.6198,0.6193,0.6188,0.6183,0.6156,0.615,0.6165,0.613,0.6127,0.6128,0.6141,0.611,0.6109,0.6132,0.6133,0.6135,0.6175,0,0,0,0,0,0,0.6256,0.6252,0.6257,0.6232,0.6226,0.6223,0.6194,0.6188,0.6182,0.6178,0.6154,0.615,0.6129,0.613,0.6128,0.6139,0.6109,0.6131,0.6133,0.6134,0.6173,0.6178,0.6183,0,0,0,0,0,0.6257,0.627,0.6257,0.6254,0.6232,0.6224,0.6221,0.6197,0.6183,0.6188,0.6171,0.615,0.614,0.613,0.6128,0.6139,0.613,0.6132,0.6134,0.6171,0.6177,0.6183,0,0,0,0,0,0,0.6297,0.6266,0.6252,0.6257,0.6243,0.6217,0.6222,0.6205,0.6195,0.6192,0.6163,0.6158,0.6163,0.6151,0.6141,0.6153,0.6132,0.6134,0.6161,0.6166,0.6171,0.6174,0.6108,0,0,0,0,0,0.6307,0.6303,0.6276,0.6283,0.6277,0.6251,0.6247,0.623,0.6215,0.6209,0.6192,0.6179,0.6172,0.6169,0.6161,0.6171,0.6166,0.6178,0.6183,0.6187,0.6189,0.6194,0.62,0.6143,0.6143,0.6143,0,0,0.6326,0.6308,0.6308,0.629,0.6278,0.6275,0.6247,0.6244,0.6242,0.6209,0.6209,0.6196,0.618,0.6185,0.6187,0.6176,0.6204,0.619,0.6194,0.6193,0.6197,0.6203,0.6208,0.6144,0.6144,0.6144,0,0,0.636,0.6346,0.6351,0.6339,0.6321,0.6304,0.6306,0.6282,0.6272,0.6272,0.6247,0.6245,0.6234,0.6224,0.6217,0.6249,0.623,0.6247,0.6273,0.6278,0.6283,0.6286,0.6298,0.6303,0.6249,0.6249,0.6249,0,0.6386,0.638,0.6355,0.6355,0.6349,0.6319,0.6324,0.6314,0.6294,0.6291,0.6279,0.6266,0.6252,0.6256,0.6264,0.6259,0.626,0.6249,0.6284,0.6288,0.6291,0.6302,0.6306,0.6252,0.6251,0.6251,0.6251,0,0.6414,0.6411,0.6417,0.6399,0.6393,0.6396,0.6372,0.6369,0.6353,0.6338,0.6338,0.6322,0.6311,0.6311,0.6295,0.6312,0.6306,0.6289,0.6267,0.6299,0.6309,0.6313,0.6255,0.6254,0.6253,0.6253,0,0,0.6471,0.644,0.6443,0.6435,0.6413,0.6411,0.6412,0.6402,0.6401,0.6389,0.639,0.6383,0.6367,0.636,0.6343,0.6348,0.6375,0.6331,0.633,0.634,0.6394,0.6406,0.6412,0.6363,0.6363,0.6364,0.6395,0,0.6501,0.6501,0.6479,0.6486,0.6483,0.6456,0.6457,0.6445,0.6431,0.6427,0.6412,0.6408,0.6388,0.6383,0.6387,0.6371,0.6385,0.6368,0.6364,0.6364,0.6369,0.6416,0.6429,0.646,0.6399,0.64,0.64,0,0.6535,0.6526,0.6533,0.6512,0.651,0.6512,0.6501,0.6497,0.6483,0.6473,0.6466,0.6447,0.6448,0.6427,0.6429,0.6418,0.6415,0.6407,0.6408,0.6406,0.6384,0.6416,0.6469,0.6473,0.6406,0.6405,0.6405,0,0.6576,0.6565,0.6568,0.6562,0.6538,0.654,0.6531,0.6515,0.6511,0.6502,0.6499,0.649,0.6486,0.648,0.6459,0.6446,0.6463,0.6441,0.6455,0.6456,0.646,0.646,0.6512,0.6458,0.6458,0.6458,0.6458,0,0.6612,0.6617,0.6586,0.6588,0.6594,0.6569,0.6575,0.6563,0.655,0.6549,0.6525,0.6525,0.6498,0.6496,0.648,0.6484,0.6482,0.6474,0.647,0.6476,0.6477,0.6473,0.6471,0.6459,0.6459,0.6459,0.6459,0,0.6658,0.6638,0.6639,0.6617,0.6611,0.6617,0.6598,0.6599,0.6584,0.6584,0.6582,0.6559,0.6555,0.6534,0.6525,0.6514,0.6524,0.6515,0.6529,0.6526,0.6541,0.654,0.6593,0.6599,0.6542,0.6542,0.6543,0,0.6682,0.6685,0.6664,0.6662,0.6653,0.665,0.6646,0.6622,0.6619,0.6604,0.6607,0.6601,0.6594,0.6589,0.6572,0.6565,0.6556,0.6575,0.6555,0.6562,0.6557,0.6557,0.6557,0.658,0.658,0.6581,0.6581,0,0.6727,0.6717,0.6711,0.6703,0.6698,0.669,0.6681,0.6681,0.6655,0.6652,0.6647,0.6643,0.6634,0.6628,0.6619,0.6609,0.6592,0.6588,0.6591,0.6598,0.6605,0.6602,0.6541,0.6587,0.6586,0.6586,0.6586,0.6585,0.6762,0.6765,0.675,0.6745,0.6736,0.6728,0.6728,0.6714,0.671,0.67,0.6687,0.6685,0.6672,0.6657,0.665,0.6648,0.6637,0.6641,0.6642,0.6644,0.6647,0.6606,0.6646,0.6646,0.6645,0.6645,0.6645,0,0.6806,0.6796,0.6791,0.6779,0.6776,0.676,0.6749,0.6747,0.6745,0.6734,0.6729,0.6725,0.672,0.6703,0.6696,0.6698,0.669,0.6697,0.6696,0.6695,0.6657,0.6655,0.6704,0.6704,0.6704,0.6704,0.6704,0.6704,0.6828,0.6831,0.682,0.6819,0.6809,0.6806,0.6801,0.6794,0.6786,0.6782,0.6778,0.6767,0.6754,0.6746,0.6741,0.6736,0.6735,0.6745,0.6738,0.6703,0.6697,0.6692,0.669,0.6745,0.6745,0.6776,0.6776,0.6777]},{"header":{"parameterUnit":"m.s-1","parameterCategory":1,"la1":30.2991,"la2":30.254,"lo1":-89.0895,"lo2":-89.0444,"dy":0.0017,"dx":0.0017,"nx":28,"ny":28,"refTime":"2023-10-08T09:00:00:Z","depth":0,"parameterNumber":3,"parameterNumberName":"V-component_of_WINDS"},"data":[0,0,0,0,0,0,0,0,0,0,0,0,0,0,0,0,0,0,0,0,0,0,0,0,0,0,0,0,0,0,0,0,0,0,0,0,0,0,0,0,0,0,0,0,0,0,0,0,0,0,0,0,0,0,0,0,0,0,-3.0419,-3.0421,0,-3.0535,-3.0536,-3.0538,-3.0557,-3.0556,-3.0555,-3.0554,-3.0668,-3.0672,-3.0676,0,0,0,0,0,0,0,0,0,0,0,0,0,-3.021,-3.0214,-3.0419,-3.0421,-3.0422,-3.0535,-3.0537,-3.0538,-3.0557,-3.0556,-3.0555,-3.0553,-3.0667,-3.0671,-3.0676,0,0,0,0,0,0,0,0,0,0,0,0,0,-3.0311,-3.0215,-3.0419,-3.0445,-3.0449,-3.0535,-3.0537,-3.0539,-3.0557,-3.0556,-3.0554,-3.0553,-3.0665,-3.0671,-3.0677,-3.0743,0,0,-3.0695,-3.0697,0,0,0,0,0,0,0,0,-3.0305,-3.0318,-3.044,-3.0444,-3.0448,-3.053,-3.0505,-3.0607,-3.0558,-3.0516,-3.0554,-3.0552,-3.0623,-3.0632,-3.0657,-3.0748,-3.0753,-3.0695,-3.0699,-3.0701,-3.0703,0,0,0,0,0,0,0,-3.0298,-3.0313,-3.0465,-3.0442,-3.0446,-3.045,-3.0463,-3.0524,-3.0576,-3.0519,-3.0521,-3.0535,-3.0625,-3.0651,-3.066,-3.0755,-3.0695,-3.07,-3.0704,-3.0706,-3.0905,-3.0907,0,0,0,0,0,0,-3.0287,-3.0308,-3.0461,-3.0468,-3.0371,-3.0455,-3.0469,-3.0505,-3.0576,-3.0585,-3.0536,-3.0535,-3.0642,-3.0653,-3.0664,-3.0745,-3.0701,-3.0707,-3.071,-3.0904,-3.0906,-3.0907,0,0,0,0,0,0,-3.0282,-3.03,-3.0457,-3.0389,-3.0409,-3.046,-3.05,-3.0508,-3.0535,-3.0588,-3.0597,-3.0554,-3.0641,-3.0656,-3.0723,-3.0749,-3.071,-3.0715,-3.0901,-3.0904,-3.0907,-3.0909,0,0,0,0,0,0,-3.0276,-3.0299,-3.0325,-3.0389,-3.0412,-3.0515,-3.0502,-3.0511,-3.0545,-3.0546,-3.0607,-3.0616,-3.0641,-3.0714,-3.0729,-3.0757,-3.072,-3.0899,-3.0903,-3.0906,-3.0906,-3.0911,-3.0915,0,0,0,0,0,-3.0269,-3.032,-3.0327,-3.0345,-3.0447,-3.0517,-3.053,-3.0559,-3.0548,-3.0574,-3.0608,-3.0614,-3.0745,-3.0721,-3.0738,-3.0768,-3.0898,-3.0902,-3.0905,-3.0904,-3.091,-3.0915,0,0,0,0,0,0,-3.0256,-3.0329,-3.0337,-3.0411,-3.0458,-3.052,-3.0554,-3.0564,-3.0614,-3.0612,-3.0644,-3.0658,-3.0724,-3.0753,-3.0725,-3.0835,-3.082,-3.0828,-3.0813,-3.0819,-3.0823,-3.0814,-3.0725,0,0,0,0,0,-3.0263,-3.0315,-3.0375,-3.0435,-3.0458,-3.0502,-3.0533,-3.0552,-3.0601,-3.062,-3.066,-3.0706,-3.0757,-3.079,-3.0841,-3.0912,-3.0924,-3.094,-3.0945,-3.0948,-3.0953,-3.0992,-3.0999,-3.092,-3.092,-3.092,0,0,-3.0275,-3.0322,-3.0352,-3.0433,-3.0472,-3.0523,-3.0518,-3.0573,-3.0611,-3.0628,-3.0695,-3.0725,-3.0779,-3.0848,-3.0881,-3.0874,-3.0978,-3.0953,-3.0955,-3.0958,-3.0996,-3.1004,-3.101,-3.0923,-3.0922,-3.0922,0,0,-3.0325,-3.0366,-3.0419,-3.0459,-3.0517,-3.0547,-3.0559,-3.0621,-3.0642,-3.071,-3.0723,-3.0769,-3.0857,-3.0894,-3.0925,-3.0989,-3.0996,-3.1005,-3.1026,-3.1063,-3.1069,-3.1075,-3.1096,-3.1104,-3.101,-3.101,-3.101,0,-3.0332,-3.0412,-3.0445,-3.05,-3.0534,-3.0555,-3.0608,-3.0644,-3.0716,-3.0738,-3.0731,-3.0842,-3.088,-3.0958,-3.0973,-3.0998,-3.1012,-3.0997,-3.1066,-3.1072,-3.1078,-3.1098,-3.1106,-3.1011,-3.1011,-3.1011,-3.1011,0,-3.0418,-3.0473,-3.0509,-3.0579,-3.0618,-3.0672,-3.0712,-3.0747,-3.0763,-3.0793,-3.0861,-3.0907,-3.0966,-3.0987,-3.1002,-3.1067,-3.1061,-3.106,-3.1045,-3.1085,-3.1105,-3.1113,-3.1012,-3.1012,-3.1011,-3.1011,0,0,-3.0461,-3.055,-3.0562,-3.0594,-3.0661,-3.0703,-3.0758,-3.0818,-3.0847,-3.0896,-3.0941,-3.1016,-3.1015,-3.105,-3.107,-3.1103,-3.1149,-3.1097,-3.1099,-3.1104,-3.1222,-3.1221,-3.1229,-3.1155,-3.1157,-3.1158,-3.1216,0,-3.0516,-3.0615,-3.0647,-3.0729,-3.0779,-3.08,-3.0847,-3.0892,-3.0922,-3.0968,-3.1,-3.1051,-3.1048,-3.1068,-3.1102,-3.1136,-3.1173,-3.1133,-3.1195,-3.1197,-3.1179,-3.124,-3.1239,-3.1292,-3.1225,-3.1226,-3.1227,0,-3.0594,-3.0646,-3.0733,-3.0793,-3.0816,-3.0858,-3.0915,-3.096,-3.1011,-3.103,-3.107,-3.1087,-3.1143,-3.1127,-3.1204,-3.1176,-3.1204,-3.1225,-3.1228,-3.1232,-3.1213,-3.1245,-3.131,-3.1317,-3.124,-3.1239,-3.1238,0,-3.0614,-3.0706,-3.077,-3.0796,-3.0869,-3.0898,-3.0929,-3.098,-3.1014,-3.1064,-3.1086,-3.1141,-3.1171,-3.1213,-3.1245,-3.123,-3.1318,-3.1305,-3.1334,-3.1333,-3.1349,-3.1348,-3.1418,-3.1371,-3.1371,-3.1371,-3.137,0,-3.0671,-3.0723,-3.0779,-3.0818,-3.0877,-3.0913,-3.0969,-3.1002,-3.1047,-3.1091,-3.1112,-3.1153,-3.1194,-3.124,-3.1265,-3.1324,-3.1338,-3.1353,-3.1359,-3.135,-3.1348,-3.1367,-3.1364,-3.1373,-3.1372,-3.1372,-3.1372,0,-3.0703,-3.0743,-3.0813,-3.0877,-3.0894,-3.0934,-3.0988,-3.1026,-3.1057,-3.1113,-3.1128,-3.1176,-3.1232,-3.1268,-3.1339,-3.1356,-3.1419,-3.1425,-3.1402,-3.1404,-3.1431,-3.1427,-3.1514,-3.1526,-3.1473,-3.1473,-3.1474,0,-3.0736,-3.0776,-3.0845,-3.0877,-3.0909,-3.096,-3.0996,-3.1033,-3.1068,-3.113,-3.116,-3.1218,-3.1265,-3.1353,-3.1393,-3.1447,-3.1453,-3.148,-3.1461,-3.145,-3.1451,-3.1447,-3.1451,-3.1481,-3.1482,-3.1482,-3.1483,0,-3.0789,-3.0807,-3.0858,-3.0916,-3.0958,-3.1005,-3.1051,-3.1076,-3.1121,-3.116,-3.1218,-3.1255,-3.1327,-3.1383,-3.1441,-3.1472,-3.1484,-3.1489,-3.1498,-3.1488,-3.1472,-3.148,-3.1408,-3.1486,-3.1485,-3.1485,-3.1485,-3.1485,-3.0821,-3.0858,-3.0912,-3.0968,-3.1007,-3.1051,-3.109,-3.1126,-3.1175,-3.1238,-3.1257,-3.1317,-3.1367,-3.1446,-3.1478,-3.1525,-3.1522,-3.1535,-3.1538,-3.1541,-3.154,-3.1467,-3.1536,-3.1536,-3.1536,-3.1536,-3.1536,0,-3.0874,-3.0911,-3.0962,-3.1027,-3.1071,-3.1081,-3.1134,-3.1169,-3.1221,-3.1268,-3.1315,-3.1381,-3.1436,-3.1481,-3.1537,-3.1565,-3.1572,-3.1579,-3.1576,-3.1582,-3.154,-3.1526,-3.1572,-3.1572,-3.1572,-3.1572,-3.1572,-3.1572,-3.0907,-3.097,-3.0994,-3.1076,-3.1112,-3.1171,-3.12,-3.124,-3.1278,-3.1351,-3.1397,-3.1427,-3.1473,-3.1532,-3.1583,-3.1594,-3.1613,-3.1618,-3.1631,-3.159,-3.1586,-3.1581,-3.1568,-3.1622,-3.1622,-3.1669,-3.1669,-3.1669]}]]